| time (UTC) | temp F | wind direction | speed MPH | gust MPH | rain 1hr in | rain 24hr in | rain mn in | humidity % | barometer mb |
| 20260508122351 | 69 | 210 | 2.0 | 5.0 | 0.00 | 0.01 | 0.00 | 98 | 1010.9 |
| 20260508121848 | 69 | 128 | 3.0 | 5.0 | 0.00 | 0.01 | 0.00 | 99 | 1010.9 |
| 20260508121352 | 69 | 205 | 3.0 | 7.0 | 0.00 | 0.01 | 0.00 | 99 | 1011.0 |
| 20260508120848 | 70 | 217 | 3.0 | 7.0 | 0.00 | 0.01 | 0.00 | 99 | 1011.2 |
| 20260508120345 | 70 | 212 | 3.0 | 6.0 | 0.00 | 0.01 | 0.00 | 99 | 1011.0 |
| 20260508115835 | 70 | 284 | 2.0 | 5.0 | 0.00 | 0.01 | 0.00 | 99 | 1011.1 |
| 20260508115339 | 70 | 90 | 2.0 | 5.0 | 0.00 | 0.01 | 0.00 | 99 | 1011.0 |
| 20260508114339 | 70 | 198 | 2.0 | 4.0 | 0.00 | 0.01 | 0.00 | 99 | 1011.0 |
| 20260508113340 | 70 | 211 | 2.0 | 4.0 | 0.00 | 0.01 | 0.00 | 99 | 1010.8 |
| 20260508112836 | 70 | 234 | 2.0 | 4.0 | 0.00 | 0.01 | 0.00 | 99 | 1010.7 |
| 20260508112339 | 70 | 212 | 2.0 | 5.0 | 0.00 | 0.01 | 0.00 | 99 | 1010.6 |
| 20260508111836 | 70 | 218 | 2.0 | 5.0 | 0.00 | 0.01 | 0.00 | 99 | 1010.3 |
| 20260508110836 | 69 | 101 | 2.0 | 3.0 | 0.00 | 0.01 | 0.00 | 99 | 1010.2 |
| 20260508105325 | 69 | 119 | 2.0 | 4.0 | 0.00 | 0.01 | 0.00 | 99 | 1010.0 |
| 20260508104310 | 69 | 153 | 2.0 | 4.0 | 0.00 | 0.01 | 0.00 | 99 | 1010.0 |
| 20260508103806 | 70 | 306 | 2.0 | 4.0 | 0.00 | 0.01 | 0.00 | 99 | 1009.9 |
| 20260508103310 | 69 | 147 | 3.0 | 4.0 | 0.00 | 0.01 | 0.00 | 99 | 1009.9 |
| 20260508102806 | 69 | 179 | 3.0 | 5.0 | 0.00 | 0.01 | 0.00 | 99 | 1009.9 |
| 20260508102311 | 69 | 176 | 3.0 | 5.0 | 0.00 | 0.01 | 0.00 | 99 | 1009.8 |
| 20260508101311 | 69 | 124 | 3.0 | 5.0 | 0.00 | 0.01 | 0.00 | 99 | 1009.5 |
| 20260508100806 | 69 | 161 | 3.0 | 4.0 | 0.00 | 0.01 | 0.00 | 99 | 1009.5 |
| 20260508100311 | 69 | 112 | 3.0 | 4.0 | 0.00 | 0.01 | 0.00 | 98 | 1009.4 |
| 20260508095807 | 69 | 115 | 3.0 | 5.0 | 0.00 | 0.01 | 0.00 | 99 | 1009.6 |
| 20260508095310 | 69 | 71 | 3.0 | 5.0 | 0.00 | 0.01 | 0.00 | 98 | 1009.6 |
| 20260508094806 | 69 | 112 | 3.0 | 4.0 | 0.00 | 0.01 | 0.00 | 98 | 1009.8 |
| 20260508094305 | 69 | 136 | 3.0 | 4.0 | 0.00 | 0.01 | 0.00 | 98 | 1009.8 |
| 20260508093753 | 69 | 177 | 2.0 | 4.0 | 0.00 | 0.01 | 0.00 | 98 | 1010.0 |
| 20260508093253 | 69 | 120 | 3.0 | 5.0 | 0.00 | 0.01 | 0.00 | 98 | 1010.0 |
| 20260508092752 | 69 | 99 | 3.0 | 5.0 | 0.00 | 0.01 | 0.00 | 98 | 1010.0 |
| 20260508091752 | 69 | 141 | 2.0 | 4.0 | 0.00 | 0.01 | 0.00 | 98 | 1010.2 |
| 20260508091253 | 69 | 130 | 2.0 | 5.0 | 0.00 | 0.01 | 0.00 | 98 | 1010.2 |
| 20260508090753 | 69 | 121 | 2.0 | 5.0 | 0.00 | 0.01 | 0.00 | 98 | 1010.2 |
| 20260508085752 | 69 | 151 | 2.0 | 4.0 | 0.00 | 0.01 | 0.00 | 98 | 1010.4 |
| 20260508084753 | 69 | 190 | 2.0 | 3.0 | 0.00 | 0.01 | 0.00 | 98 | 1010.4 |
| 20260508084253 | 69 | 128 | 2.0 | 3.0 | 0.00 | 0.01 | 0.00 | 98 | 1010.4 |
| 20260508083751 | 69 | 133 | 2.0 | 3.0 | 0.00 | 0.01 | 0.00 | 98 | 1010.5 |
| 20260508082736 | 70 | 156 | 2.0 | 3.0 | 0.00 | 0.01 | 0.00 | 98 | 1010.7 |
| 20260508082237 | 70 | 23 | 2.0 | 3.0 | 0.00 | 0.01 | 0.00 | 98 | 1010.8 |
| 20260508081737 | 70 | 174 | 2.0 | 2.0 | 0.00 | 0.01 | 0.00 | 98 | 1010.7 |
| 20260508081236 | 70 | 257 | 1.0 | 3.0 | 0.00 | 0.01 | 0.00 | 97 | 1010.7 |
| 20260508080738 | 70 | 169 | 2.0 | 3.0 | 0.00 | 0.01 | 0.00 | 97 | 1010.8 |
| 20260508080237 | 70 | 144 | 2.0 | 3.0 | 0.00 | 0.01 | 0.00 | 97 | 1011.2 |
| 20260508075736 | 70 | 158 | 2.0 | 3.0 | 0.00 | 0.01 | 0.00 | 97 | 1011.4 |
| 20260508075237 | 70 | 165 | 2.0 | 3.0 | 0.00 | 0.01 | 0.00 | 97 | 1011.5 |
| 20260508074737 | 70 | 158 | 2.0 | 2.0 | 0.00 | 0.01 | 0.00 | 97 | 1011.4 |
| 20260508074238 | 70 | 165 | 2.0 | 3.0 | 0.00 | 0.01 | 0.00 | 97 | 1011.2 |
| 20260508073737 | 70 | 158 | 2.0 | 4.0 | 0.00 | 0.01 | 0.00 | 96 | 1010.8 |
| 20260508073237 | 70 | 117 | 2.0 | 4.0 | 0.00 | 0.01 | 0.00 | 96 | 1011.1 |
| 20260508072738 | 70 | 210 | 2.0 | 4.0 | 0.00 | 0.01 | 0.00 | 96 | 1011.2 |
| 20260508072237 | 70 | 203 | 1.0 | 3.0 | 0.00 | 0.01 | 0.00 | 95 | 1011.2 |
| 20260508071722 | 70 | 326 | 0.0 | 3.0 | 0.00 | 0.01 | 0.00 | 95 | 1011.3 |
| 20260508071222 | 70 | 0 | 0.0 | 1.0 | 0.00 | 0.01 | 0.00 | 94 | 1011.5 |
| 20260508070722 | 71 | 0 | 0.0 | 2.0 | 0.00 | 0.01 | 0.00 | 94 | 1011.6 |
| 20260508070222 | 71 | 0 | 0.0 | 2.0 | 0.00 | 0.01 | 0.00 | 93 | 1011.8 |
| 20260508065727 | 71 | 0 | 1.0 | 4.0 | 0.00 | 0.01 | 0.00 | 93 | 1011.9 |
| 20260508065208 | 71 | 204 | 2.0 | 4.0 | 0.00 | 0.01 | 0.00 | 93 | 1012.0 |
| 20260508064713 | 71 | 259 | 3.0 | 4.0 | 0.00 | 0.01 | 0.00 | 92 | 1012.2 |
| 20260508064209 | 71 | 214 | 3.0 | 4.0 | 0.00 | 0.01 | 0.00 | 92 | 1012.2 |
| 20260508063713 | 71 | 244 | 2.0 | 4.0 | 0.00 | 0.01 | 0.00 | 92 | 1012.3 |
| 20260508063210 | 71 | 224 | 2.0 | 3.0 | 0.00 | 0.01 | 0.00 | 92 | 1012.2 |
| 20260508062711 | 72 | 180 | 1.0 | 3.0 | 0.00 | 0.01 | 0.00 | 93 | 1012.2 |
| 20260508062208 | 72 | 0 | 1.0 | 2.0 | 0.00 | 0.01 | 0.00 | 93 | 1012.1 |
| 20260508061711 | 72 | 314 | 0.0 | 2.0 | 0.00 | 0.01 | 0.00 | 93 | 1011.9 |
| 20260508061208 | 72 | 140 | 1.0 | 3.0 | 0.00 | 0.01 | 0.00 | 93 | 1011.8 |
| 20260508060711 | 72 | 0 | 1.0 | 3.0 | 0.00 | 0.01 | 0.00 | 93 | 1011.9 |
| 20260508060207 | 72 | 326 | 1.0 | 3.0 | 0.00 | 0.01 | 0.00 | 93 | 1011.9 |
| 20260508055707 | 72 | 139 | 1.0 | 3.0 | 0.00 | 0.01 | 0.00 | 93 | 1011.7 |
| 20260508055154 | 72 | 81 | 1.0 | 3.0 | 0.00 | 0.01 | 0.00 | 93 | 1011.8 |
| 20260508054653 | 72 | 132 | 1.0 | 2.0 | 0.00 | 0.01 | 0.00 | 93 | 1012.0 |
| 20260508054154 | 72 | 129 | 1.0 | 2.0 | 0.00 | 0.01 | 0.00 | 93 | 1012.0 |
| 20260508053154 | 72 | 92 | 1.0 | 3.0 | 0.00 | 0.01 | 0.00 | 93 | 1011.9 |
| 20260508052654 | 72 | 60 | 2.0 | 3.0 | 0.00 | 0.01 | 0.00 | 93 | 1011.6 |
| 20260508052154 | 71 | 102 | 2.0 | 4.0 | 0.00 | 0.01 | 0.00 | 93 | 1011.4 |
| 20260508051654 | 71 | 79 | 2.0 | 4.0 | 0.00 | 0.01 | 0.00 | 93 | 1011.2 |
| 20260508050654 | 71 | 0 | 1.0 | 3.0 | 0.00 | 0.01 | 0.00 | 92 | 1011.3 |
| 20260508050155 | 71 | 47 | 2.0 | 3.0 | 0.00 | 0.01 | 0.00 | 92 | 1011.3 |
| 20260508045639 | 71 | 59 | 2.0 | 3.0 | 0.00 | 0.01 | 0.01 | 92 | 1011.3 |
| 20260508045139 | 71 | 63 | 2.0 | 3.0 | 0.00 | 0.01 | 0.01 | 91 | 1011.5 |
| 20260508044640 | 71 | 102 | 1.0 | 3.0 | 0.00 | 0.01 | 0.01 | 91 | 1011.6 |
| 20260508044140 | 71 | 65 | 1.0 | 2.0 | 0.00 | 0.01 | 0.01 | 91 | 1011.7 |
| 20260508043640 | 72 | 94 | 1.0 | 2.0 | 0.00 | 0.01 | 0.01 | 90 | 1011.9 |
| 20260508043125 | 72 | 46 | 1.0 | 2.0 | 0.00 | 0.01 | 0.01 | 89 | 1012.0 |
| 20260508042624 | 72 | 0 | 1.0 | 4.0 | 0.00 | 0.01 | 0.01 | 88 | 1012.5 |
| 20260508042125 | 72 | 23 | 1.0 | 4.0 | 0.00 | 0.01 | 0.01 | 88 | 1012.5 |
| 20260508041625 | 72 | 83 | 2.0 | 4.0 | 0.00 | 0.01 | 0.01 | 87 | 1012.5 |
| 20260508040625 | 72 | 48 | 1.0 | 4.0 | 0.00 | 0.01 | 0.01 | 85 | 1012.5 |
| 20260508040125 | 72 | 326 | 1.0 | 4.0 | 0.00 | 0.01 | 0.01 | 85 | 1012.6 |
| 20260508035626 | 72 | 55 | 2.0 | 8.0 | 0.00 | 0.01 | 0.01 | 85 | 1012.2 |
| 20260508035122 | 72 | 22 | 3.0 | 8.0 | 0.00 | 0.01 | 0.01 | 85 | 1011.3 |
| 20260508034623 | 72 | 116 | 4.0 | 12.0 | 0.00 | 0.01 | 0.01 | 85 | 1010.5 |
| 20260508034118 | 72 | 46 | 5.0 | 12.0 | 0.00 | 0.01 | 0.01 | 84 | 1010.5 |
| 20260508033619 | 72 | 64 | 5.0 | 9.0 | 0.00 | 0.01 | 0.01 | 84 | 1010.5 |
| 20260508033118 | 72 | 109 | 5.0 | 10.0 | 0.00 | 0.01 | 0.01 | 84 | 1010.2 |
| 20260508032619 | 72 | 96 | 5.0 | 13.0 | 0.00 | 0.01 | 0.01 | 83 | 1009.8 |
| 20260508032118 | 72 | 89 | 5.0 | 13.0 | 0.00 | 0.01 | 0.01 | 83 | 1010.1 |
| 20260508031118 | 72 | 36 | 5.0 | 10.0 | 0.00 | 0.01 | 0.01 | 83 | 1011.1 |
| 20260508030619 | 72 | 62 | 4.0 | 8.0 | 0.00 | 0.01 | 0.01 | 82 | 1010.9 |
| 20260508025619 | 72 | 58 | 3.0 | 7.0 | 0.00 | 0.01 | 0.01 | 82 | 1011.5 |
| 20260508025113 | 72 | 40 | 3.0 | 6.0 | 0.00 | 0.01 | 0.01 | 82 | 1011.5 |
| 20260508024613 | 72 | 64 | 3.0 | 7.0 | 0.00 | 0.01 | 0.01 | 82 | 1011.5 |
| 20260508023613 | 72 | 19 | 3.0 | 7.0 | 0.00 | 0.01 | 0.01 | 81 | 1011.8 |
| 20260508023111 | 72 | 31 | 3.0 | 7.0 | 0.00 | 0.01 | 0.01 | 81 | 1011.9 |
| 20260508022610 | 73 | 56 | 3.0 | 7.0 | 0.00 | 0.01 | 0.01 | 81 | 1012.0 |
| 20260508022109 | 73 | 66 | 3.0 | 6.0 | 0.00 | 0.01 | 0.01 | 81 | 1012.3 |
| 20260508021610 | 73 | 27 | 3.0 | 6.0 | 0.00 | 0.01 | 0.01 | 81 | 1012.2 |
| 20260508021110 | 73 | 77 | 2.0 | 5.0 | 0.00 | 0.01 | 0.01 | 81 | 1012.2 |
| 20260508020610 | 73 | 44 | 2.0 | 5.0 | 0.00 | 0.01 | 0.01 | 81 | 1012.2 |
| 20260508020115 | 73 | 45 | 3.0 | 7.0 | 0.00 | 0.01 | 0.01 | 81 | 1011.8 |
| 20260508015601 | 73 | 327 | 3.0 | 7.0 | 0.00 | 0.01 | 0.01 | 81 | 1011.7 |
| 20260508014047 | 73 | 53 | 3.0 | 6.0 | 0.00 | 0.01 | 0.01 | 81 | 1011.9 |
| 20260508013045 | 73 | 45 | 2.0 | 5.0 | 0.00 | 0.01 | 0.01 | 81 | 1011.7 |
| 20260508012045 | 73 | 357 | 3.0 | 8.0 | 0.00 | 0.01 | 0.01 | 80 | 1011.8 |
| 20260508011546 | 73 | 55 | 3.0 | 6.0 | 0.00 | 0.01 | 0.01 | 80 | 1011.6 |
| 20260508011045 | 73 | 44 | 2.0 | 6.0 | 0.00 | 0.01 | 0.01 | 80 | 1011.7 |
| 20260508010545 | 73 | 27 | 2.0 | 6.0 | 0.00 | 0.01 | 0.01 | 80 | 1011.7 |
| 20260508010045 | 73 | 55 | 3.0 | 6.0 | 0.00 | 0.01 | 0.01 | 80 | 1011.4 |
| 20260508005545 | 73 | 42 | 3.0 | 6.0 | 0.00 | 0.01 | 0.01 | 80 | 1011.3 |
| 20260508005043 | 73 | 57 | 3.0 | 7.0 | 0.00 | 0.01 | 0.01 | 80 | 1011.2 |
| 20260508004542 | 73 | 59 | 3.0 | 7.0 | 0.00 | 0.01 | 0.01 | 80 | 1011.2 |
| 20260508004039 | 73 | 63 | 3.0 | 7.0 | 0.00 | 0.01 | 0.01 | 80 | 1011.1 |
| 20260508003539 | 73 | 30 | 3.0 | 6.0 | 0.00 | 0.01 | 0.01 | 80 | 1011.3 |
| 20260508003040 | 74 | 59 | 2.0 | 6.0 | 0.00 | 0.01 | 0.01 | 80 | 1011.4 |
| 20260508002540 | 74 | 51 | 2.0 | 5.0 | 0.00 | 0.01 | 0.01 | 80 | 1011.5 |
| 20260508002040 | 73 | 44 | 3.0 | 7.0 | 0.00 | 0.01 | 0.01 | 80 | 1011.4 |
| 20260508001540 | 73 | 358 | 3.0 | 8.0 | 0.00 | 0.01 | 0.01 | 80 | 1011.3 |
| 20260508001040 | 74 | 29 | 3.0 | 8.0 | 0.00 | 0.01 | 0.01 | 80 | 1011.4 |
| 20260508000541 | 74 | 69 | 4.0 | 7.0 | 0.00 | 0.01 | 0.01 | 80 | 1011.2 |
| 20260507235540 | 74 | 70 | 3.0 | 8.0 | 0.00 | 0.01 | 0.01 | 80 | 1011.4 |
| 20260507235048 | 74 | 48 | 3.0 | 8.0 | 0.00 | 0.01 | 0.01 | 80 | 1011.3 |
| 20260507234541 | 74 | 38 | 3.0 | 7.0 | 0.00 | 0.01 | 0.01 | 80 | 1011.2 |
| 20260507233540 | 74 | 29 | 4.0 | 8.0 | 0.00 | 0.01 | 0.01 | 80 | 1011.1 |
| 20260507232538 | 74 | 67 | 4.0 | 9.0 | 0.00 | 0.01 | 0.01 | 80 | 1011.1 |
| 20260507232038 | 74 | 34 | 3.0 | 9.0 | 0.00 | 0.01 | 0.01 | 80 | 1011.3 |
| 20260507231538 | 74 | 302 | 3.0 | 8.0 | 0.00 | 0.01 | 0.01 | 80 | 1011.3 |
| 20260507231038 | 74 | 81 | 3.0 | 8.0 | 0.00 | 0.01 | 0.01 | 80 | 1011.2 |
| 20260507230538 | 74 | 57 | 3.0 | 8.0 | 0.00 | 0.01 | 0.01 | 80 | 1011.0 |
| 20260507230038 | 74 | 57 | 4.0 | 8.0 | 0.00 | 0.01 | 0.01 | 80 | 1011.0 |
| 20260507225538 | 74 | 37 | 4.0 | 8.0 | 0.00 | 0.01 | 0.01 | 79 | 1011.1 |
| 20260507224038 | 74 | 41 | 4.0 | 8.0 | 0.00 | 0.01 | 0.01 | 79 | 1011.1 |
| 20260507223538 | 74 | 24 | 4.0 | 9.0 | 0.00 | 0.01 | 0.01 | 79 | 1011.0 |
| 20260507223038 | 74 | 45 | 4.0 | 9.0 | 0.00 | 0.01 | 0.01 | 79 | 1011.0 |
| 20260507222536 | 74 | 60 | 3.0 | 8.0 | 0.00 | 0.01 | 0.01 | 79 | 1011.1 |
| 20260507221533 | 75 | 31 | 3.0 | 8.0 | 0.00 | 0.01 | 0.01 | 79 | 1011.1 |
| 20260507221034 | 75 | 12 | 3.0 | 8.0 | 0.00 | 0.01 | 0.01 | 79 | 1011.1 |
| 20260507220533 | 75 | 53 | 3.0 | 8.0 | 0.00 | 0.01 | 0.01 | 79 | 1011.1 |
| 20260507220035 | 75 | 36 | 3.0 | 7.0 | 0.00 | 0.01 | 0.01 | 79 | 1011.1 |
| 20260507215034 | 74 | 25 | 4.0 | 8.0 | 0.00 | 0.01 | 0.01 | 79 | 1011.0 |
| 20260507214533 | 74 | 53 | 4.0 | 8.0 | 0.00 | 0.01 | 0.01 | 79 | 1011.0 |
| 20260507214035 | 74 | 79 | 3.0 | 8.0 | 0.00 | 0.01 | 0.01 | 78 | 1010.9 |
| 20260507213533 | 74 | 52 | 4.0 | 8.0 | 0.00 | 0.01 | 0.01 | 79 | 1010.8 |
| 20260507212533 | 74 | 62 | 4.0 | 9.0 | 0.00 | 0.01 | 0.01 | 78 | 1010.9 |
| 20260507212048 | 74 | 80 | 4.0 | 9.0 | 0.00 | 0.01 | 0.01 | 79 | 1011.1 |
| 20260507211035 | 74 | 47 | 4.0 | 8.0 | 0.00 | 0.01 | 0.01 | 79 | 1011.2 |
| 20260507210535 | 73 | 25 | 4.0 | 8.0 | 0.00 | 0.01 | 0.01 | 80 | 1011.2 |
| 20260507205028 | 73 | 45 | 4.0 | 7.0 | 0.00 | 0.01 | 0.01 | 80 | 1011.3 |
| 20260507204527 | 73 | 70 | 4.0 | 9.0 | 0.00 | 0.01 | 0.01 | 80 | 1011.4 |
| 20260507204027 | 73 | 61 | 5.0 | 9.0 | 0.00 | 0.01 | 0.01 | 80 | 1011.5 |
| 20260507203527 | 73 | 26 | 5.0 | 8.0 | 0.00 | 0.01 | 0.01 | 80 | 1011.6 |
| 20260507203028 | 73 | 34 | 4.0 | 8.0 | 0.00 | 0.01 | 0.01 | 80 | 1011.7 |
| 20260507202528 | 73 | 32 | 5.0 | 9.0 | 0.00 | 0.01 | 0.01 | 81 | 1011.7 |
| 20260507202029 | 73 | 36 | 5.0 | 9.0 | 0.00 | 0.01 | 0.01 | 81 | 1011.7 |
| 20260507201529 | 73 | 37 | 4.0 | 7.0 | 0.00 | 0.01 | 0.01 | 81 | 1011.9 |
| 20260507201028 | 73 | 16 | 4.0 | 8.0 | 0.00 | 0.01 | 0.01 | 81 | 1012.0 |
| 20260507200028 | 73 | 45 | 4.0 | 8.0 | 0.00 | 0.01 | 0.01 | 81 | 1012.0 |
| 20260507195523 | 73 | 45 | 4.0 | 11.0 | 0.00 | 0.01 | 0.01 | 79 | 1012.0 |
| 20260507195019 | 73 | 46 | 4.0 | 11.0 | 0.00 | 0.01 | 0.01 | 80 | 1012.1 |
| 20260507194516 | 73 | 50 | 3.0 | 8.0 | 0.00 | 0.01 | 0.01 | 80 | 1012.1 |
| 20260507194018 | 72 | 12 | 3.0 | 6.0 | 0.00 | 0.01 | 0.01 | 81 | 1012.3 |
| 20260507193516 | 72 | 80 | 4.0 | 8.0 | 0.00 | 0.01 | 0.01 | 82 | 1012.3 |
| 20260507193018 | 71 | 56 | 4.0 | 8.0 | 0.00 | 0.01 | 0.01 | 83 | 1012.4 |
| 20260507192517 | 71 | 47 | 4.0 | 8.0 | 0.00 | 0.01 | 0.01 | 83 | 1012.6 |
| 20260507192018 | 71 | 43 | 4.0 | 8.0 | 0.00 | 0.01 | 0.01 | 83 | 1012.6 |
| 20260507191517 | 71 | 38 | 4.0 | 8.0 | 0.00 | 0.01 | 0.01 | 84 | 1012.8 |
| 20260507191018 | 71 | 69 | 4.0 | 9.0 | 0.00 | 0.01 | 0.01 | 84 | 1012.8 |
| 20260507185518 | 71 | 4 | 4.0 | 7.0 | 0.00 | 0.01 | 0.01 | 83 | 1012.9 |
| 20260507185017 | 71 | 8 | 5.0 | 10.0 | 0.00 | 0.01 | 0.01 | 83 | 1013.1 |
| 20260507184516 | 71 | 45 | 5.0 | 10.0 | 0.00 | 0.01 | 0.01 | 83 | 1013.0 |
| 20260507183015 | 71 | 70 | 5.0 | 11.0 | 0.00 | 0.01 | 0.01 | 83 | 1013.3 |
| 20260507182012 | 71 | 38 | 4.0 | 7.0 | 0.00 | 0.01 | 0.01 | 84 | 1013.5 |
| 20260507181511 | 71 | 30 | 3.0 | 7.0 | 0.00 | 0.01 | 0.01 | 84 | 1013.5 |
| 20260507181013 | 71 | 27 | 4.0 | 7.0 | 0.01 | 0.01 | 0.01 | 84 | 1013.5 |
| 20260507180512 | 70 | 25 | 4.0 | 7.0 | 0.01 | 0.01 | 0.01 | 85 | 1013.6 |
| 20260507180006 | 70 | 73 | 4.0 | 9.0 | 0.01 | 0.01 | 0.01 | 86 | 1013.5 |
| 20260507175506 | 70 | 52 | 5.0 | 9.0 | 0.01 | 0.01 | 0.01 | 86 | 1013.5 |
| 20260507175006 | 70 | 36 | 4.0 | 9.0 | 0.01 | 0.01 | 0.01 | 85 | 1013.5 |
| 20260507174506 | 70 | 34 | 4.0 | 9.0 | 0.01 | 0.01 | 0.01 | 85 | 1013.6 |
| 20260507174007 | 70 | 27 | 4.0 | 8.0 | 0.01 | 0.01 | 0.01 | 85 | 1013.5 |
| 20260507173507 | 70 | 69 | 4.0 | 7.0 | 0.01 | 0.01 | 0.01 | 86 | 1013.5 |
| 20260507171955 | 70 | 42 | 3.0 | 8.0 | 0.01 | 0.01 | 0.01 | 87 | 1013.7 |
| 20260507171455 | 71 | 27 | 4.0 | 8.0 | 0.01 | 0.01 | 0.01 | 85 | 1013.7 |
| 20260507170955 | 71 | 26 | 4.0 | 7.0 | 0.00 | 0.00 | 0.00 | 83 | 1013.6 |
| 20260507170450 | 71 | 57 | 3.0 | 7.0 | 0.00 | 0.00 | 0.00 | 83 | 1013.7 |
| 20260507165449 | 71 | 43 | 3.0 | 6.0 | 0.00 | 0.00 | 0.00 | 83 | 1013.8 |
| 20260507164949 | 71 | 354 | 3.0 | 8.0 | 0.00 | 0.00 | 0.00 | 83 | 1013.8 |
| 20260507164449 | 71 | 19 | 4.0 | 8.0 | 0.00 | 0.00 | 0.00 | 83 | 1013.7 |
| 20260507163949 | 71 | 12 | 4.0 | 8.0 | 0.00 | 0.00 | 0.00 | 83 | 1013.7 |
| 20260507163451 | 71 | 25 | 4.0 | 7.0 | 0.00 | 0.00 | 0.00 | 83 | 1013.6 |
| 20260507162949 | 71 | 42 | 3.0 | 5.0 | 0.00 | 0.00 | 0.00 | 83 | 1013.5 |
| 20260507162451 | 71 | 46 | 3.0 | 7.0 | 0.00 | 0.00 | 0.00 | 83 | 1013.5 |
| 20260507161949 | 71 | 39 | 3.0 | 7.0 | 0.00 | 0.00 | 0.00 | 83 | 1013.4 |
| 20260507161450 | 71 | 356 | 3.0 | 7.0 | 0.00 | 0.00 | 0.00 | 83 | 1013.3 |
| 20260507160949 | 71 | 31 | 3.0 | 7.0 | 0.00 | 0.00 | 0.00 | 83 | 1013.3 |
| 20260507160450 | 71 | 297 | 3.0 | 7.0 | 0.00 | 0.00 | 0.00 | 83 | 1013.1 |
| 20260507155950 | 70 | 52 | 4.0 | 8.0 | 0.00 | 0.00 | 0.00 | 83 | 1013.0 |
| 20260507155445 | 70 | 23 | 4.0 | 8.0 | 0.00 | 0.00 | 0.00 | 83 | 1013.1 |
| 20260507154944 | 70 | 50 | 4.0 | 7.0 | 0.00 | 0.00 | 0.00 | 83 | 1013.1 |
| 20260507154443 | 70 | 36 | 4.0 | 6.0 | 0.00 | 0.00 | 0.00 | 83 | 1013.1 |
| 20260507152944 | 70 | 350 | 5.0 | 8.0 | 0.00 | 0.00 | 0.00 | 84 | 1012.9 |
| 20260507152444 | 70 | 35 | 5.0 | 8.0 | 0.00 | 0.00 | 0.00 | 84 | 1012.9 |
| 20260507151944 | 70 | 43 | 5.0 | 9.0 | 0.00 | 0.00 | 0.00 | 84 | 1012.8 |
| 20260507151444 | 70 | 25 | 5.0 | 10.0 | 0.00 | 0.00 | 0.00 | 84 | 1012.8 |
| 20260507150944 | 70 | 65 | 5.0 | 10.0 | 0.00 | 0.00 | 0.00 | 84 | 1012.9 |
| 20260507150445 | 70 | 38 | 5.0 | 10.0 | 0.00 | 0.00 | 0.00 | 84 | 1012.9 |
| 20260507145944 | 70 | 1 | 5.0 | 9.0 | 0.00 | 0.00 | 0.00 | 85 | 1012.6 |
| 20260507145444 | 70 | 13 | 4.0 | 8.0 | 0.00 | 0.00 | 0.00 | 85 | 1012.8 |
| 20260507144944 | 70 | 338 | 4.0 | 8.0 | 0.00 | 0.00 | 0.00 | 85 | 1012.7 |
| 20260507144444 | 70 | 41 | 4.0 | 9.0 | 0.00 | 0.00 | 0.00 | 85 | 1012.7 |
| 20260507142939 | 70 | 49 | 5.0 | 10.0 | 0.00 | 0.00 | 0.00 | 85 | 1012.8 |
| 20260507141939 | 70 | 63 | 4.0 | 8.0 | 0.00 | 0.00 | 0.00 | 85 | 1012.6 |
| 20260507141433 | 70 | 20 | 4.0 | 7.0 | 0.00 | 0.00 | 0.00 | 86 | 1012.3 |
| 20260507140927 | 70 | 48 | 3.0 | 7.0 | 0.00 | 0.00 | 0.00 | 85 | 1012.6 |
| 20260507140427 | 70 | 356 | 3.0 | 7.0 | 0.00 | 0.00 | 0.00 | 85 | 1012.6 |
| 20260507135423 | 70 | 35 | 3.0 | 4.0 | 0.00 | 0.00 | 0.00 | 85 | 1012.5 |
| 20260507134921 | 70 | 339 | 3.0 | 4.0 | 0.00 | 0.00 | 0.00 | 85 | 1012.3 |
| 20260507133921 | 70 | 40 | 2.0 | 5.0 | 0.00 | 0.00 | 0.00 | 86 | 1012.3 |
| 20260507133425 | 70 | 34 | 2.0 | 5.0 | 0.00 | 0.00 | 0.00 | 87 | 1012.3 |
| 20260507132922 | 70 | 67 | 3.0 | 7.0 | 0.00 | 0.00 | 0.00 | 87 | 1012.3 |
| 20260507132424 | 69 | 27 | 3.0 | 7.0 | 0.00 | 0.00 | 0.00 | 87 | 1012.2 |
| 20260507131915 | 69 | 28 | 3.0 | 7.0 | 0.00 | 0.00 | 0.00 | 88 | 1012.1 |
| 20260507131410 | 69 | 345 | 3.0 | 7.0 | 0.00 | 0.00 | 0.00 | 88 | 1012.0 |
| 20260507130904 | 69 | 62 | 4.0 | 7.0 | 0.00 | 0.00 | 0.00 | 88 | 1011.9 |
| 20260507130403 | 69 | 30 | 4.0 | 8.0 | 0.00 | 0.00 | 0.00 | 88 | 1011.8 |
| 20260507125904 | 69 | 36 | 4.0 | 8.0 | 0.00 | 0.00 | 0.00 | 88 | 1011.9 |
| 20260507125404 | 69 | 23 | 3.0 | 8.0 | 0.00 | 0.00 | 0.00 | 88 | 1011.8 |
| 20260507124904 | 70 | 41 | 4.0 | 8.0 | 0.00 | 0.00 | 0.00 | 87 | 1011.7 |
| 20260507124404 | 70 | 42 | 4.0 | 8.0 | 0.00 | 0.00 | 0.00 | 86 | 1011.7 |
| 20260507123904 | 70 | 41 | 4.0 | 8.0 | 0.00 | 0.00 | 0.00 | 86 | 1011.7 |
| 20260507123404 | 70 | 36 | 3.0 | 6.0 | 0.00 | 0.00 | 0.00 | 85 | 1011.7 |
| 20260507122904 | 70 | 36 | 3.0 | 6.0 | 0.00 | 0.00 | 0.00 | 85 | 1011.6 |